Theta_e
325 325 325 324 325 325 325 325 325 326 326 326 326 326 326 326 324 321 311 322 327 354 346 343 340 333 337 331 337 332 323 318 319 320 322 327 327 330 333 330 330 333 337 341 346
325 325 325 324 324 324 324 325 325 325 325 325 326 326 326 326 319 311 329 348 355 358 322 321 321 324 325 324 330 327 322 318 326 327 325 327 328 328 329 328 329 335 341 344 344
324 324 324 323 324 324 324 325 324 324 324 325 325 326 326 326 308 308 350 356 355 350 321 324 323 325 323 325 324 322 319 321 324 329 329 327 325 330 330 325 330 332 338 341 342
324 323 323 323 323 323 323 324 323 323 323 324 325 326 327 320 301 314 345 357 357 331 322 323 324 324 321 319 322 318 321 324 328 330 327 324 327 328 331 331 334 339 342 342 340
323 322 323 322 322 323 323 323 322 322 321 323 325 326 319 307 307 314 337 331 331 323 321 322 324 322 318 319 319 317 322 328 329 328 327 328 327 327 330 332 337 341 341 340 340
322 322 322 322 322 322 322 322 321 320 320 321 325 326 314 303 312 316 319 318 322 323 323 324 323 322 319 317 317 320 327 327 327 327 329 326 327 330 330 335 337 339 339 340 340
321 321 321 321 321 321 321 320 320 321 322 324 325 324 311 308 315 318 319 317 319 324 321 323 323 319 318 316 319 319 320 324 325 326 325 329 323 325 331 334 335 337 338 339 340
321 321 320 320 320 320 320 319 319 322 326 325 326 320 306 313 316 318 320 318 317 319 320 321 321 319 318 320 319 316 316 313 320 325 326 324 317 325 331 330 332 333 336 337 340
320 320 320 319 319 318 317 318 321 325 326 327 318 311 306 320 315 318 320 314 314 314 316 320 320 317 319 317 315 314 310 311 313 326 325 324 319 326 332 328 327 331 334 335 338
319 319 318 318 318 317 316 318 320 324 325 325 321 309 311 310 314 316 316 315 312 312 314 316 316 316 316 316 309 308 309 310 311 318 324 321 321 326 329 328 326 327 329 332 334
318 318 317 317 316 315 316 317 316 312 315 312 310 306 311 316 317 315 313 312 311 311 309 309 311 310 315 316 314 312 310 309 313 317 318 319 321 323 329 329 327 327 329 329 330
317 317 317 316 315 314 315 315 313 314 309 315 314 314 316 316 312 314 313 309 308 304 305 307 307 312 315 314 313 312 310 310 313 317 318 317 317 320 326 328 329 329 329 330 332
316 316 316 314 314 315 314 315 318 317 310 310 312 312 314 316 311 311 311 307 305 303 303 303 307 309 310 310 310 311 311 309 308 313 317 314 315 316 325 329 330 330 332 333 333
316 316 315 312 312 313 314 317 318 317 304 305 307 310 313 313 308 315 310 308 303 302 303 303 306 306 307 308 311 309 311 310 309 308 305 313 306 316 317 323 328 329 329 332 335
315 315 313 312 312 311 314 317 318 311 295 307 307 316 313 309 307 308 309 308 303 301 303 302 303 304 304 306 310 309 311 308 309 310 309 310 308 313 317 318 323 329 331 332 336
314 314 313 312 312 314 316 317 313 301 294 304 307 306 307 308 308 306 307 309 307 303 303 304 305 307 308 309 311 311 309 310 310 310 305 308 308 310 314 318 322 326 331 333 334
312 312 311 313 311 316 317 313 301 295 304 303 303 307 304 304 305 305 305 303 302 298 299 301 302 305 307 304 307 308 306 301 302 302 303 308 307 312 318 319 321 323 328 332 335
310 309 312 312 315 316 314 308 293 298 303 308 305 304 302 304 304 303 303 302 301 301 299 298 296 302 306 305 305 305 306 302 297 299 303 307 305 310 318 320 322 324 328 332 333
310 314 313 316 315 315 311 298 296 300 306 303 305 301 302 303 303 303 304 303 305 303 299 298 298 303 305 307 308 306 304 309 303 303 303 307 310 315 318 320 321 322 325 331 333
310 313 315 317 317 312 308 296 301 306 307 305 301 304 301 303 301 301 301 303 303 304 307 303 298 302 304 308 308 309 312 304 307 299 297 303 306 308 317 319 321 322 324 327 334
312 313 316 318 315 310 302 300 303 308 308 305 303 303 304 303 304 302 302 304 304 302 304 303 302 302 303 304 304 306 306 307 308 307 300 299 303 318 319 321 320 322 327 328 331
310 309 318 318 309 305 304 304 303 309 310 308 308 306 304 305 304 303 304 305 313 305 301 304 302 299 302 304 304 306 307 309 302 302 305 305 304 317 319 322 322 323 328 330 333
309 310 319 317 306 307 309 309 309 310 310 308 307 307 307 306 304 304 306 313 314 304 304 303 301 298 300 302 304 303 305 307 306 307 305 301 303 319 320 323 324 325 329 335 335
310 309 314 314 310 309 308 308 309 313 311 311 310 310 311 305 306 305 308 314 316 314 318 308 300 301 298 301 305 305 306 307 308 305 305 306 308 315 318 320 323 326 330 334 338
310 309 310 307 309 310 310 309 308 308 313 315 312 313 311 309 304 305 310 313 315 318 311 306 304 301 302 301 302 304 305 307 307 309 306 309 309 315 319 319 321 325 330 335 337
310 309 313 310 308 308 305 308 308 310 312 311 312 314 311 309 311 307 309 312 311 316 314 310 308 306 306 305 301 302 306 308 308 309 309 310 311 319 320 321 323 326 329 333 337
313 313 311 304 308 307 309 309 310 312 313 315 314 314 312 314 317 318 318 316 315 315 313 311 311 309 304 306 303 301 305 308 308 311 309 306 311 320 320 323 325 327 330 332 336
Wind_Speed
16 16 15 16 16 16 17 18 18 19 19 20 20 19 18 16 16 3 5 3 3 9 7 6 4 2 4 3 3 2 0 2 3 2 1 5 4 3 3 11 3 2 6 11 20
16 16 17 17 17 17 17 17 18 19 19 19 19 18 17 16 3 5 5 10 5 10 5 1 3 2 1 1 2 2 1 3 4 4 1 8 4 7 5 10 4 10 12 21 20
16 17 17 18 19 18 18 18 18 18 19 18 18 17 16 13 5 3 9 10 11 7 2 2 1 2 2 1 0 1 2 3 4 4 8 9 6 4 8 8 8 13 20 19 19
17 17 17 18 19 20 19 19 19 19 19 18 17 16 16 4 3 2 7 4 4 8 6 4 2 3 0 5 2 4 4 4 2 6 6 8 8 4 6 3 5 18 22 21 19
17 17 18 18 19 20 20 19 19 20 18 17 15 13 5 2 7 2 9 5 3 6 6 4 2 1 2 5 5 2 7 4 5 9 8 9 5 1 6 7 15 19 19 19 17
15 16 17 19 20 20 21 20 18 19 19 16 11 8 2 5 1 2 8 4 4 4 4 4 3 2 1 3 3 3 5 4 5 6 5 5 3 1 4 12 16 19 19 18 18
15 16 17 18 20 21 21 21 21 20 17 12 5 3 3 12 1 7 5 2 2 3 4 3 4 4 3 1 4 3 1 5 6 2 2 4 2 5 12 14 15 15 17 16 16
16 17 18 19 20 22 23 22 21 17 12 3 5 2 7 3 4 9 3 2 4 2 2 2 2 2 1 0 2 2 3 4 2 3 3 2 6 4 13 16 14 13 14 14 17
16 18 19 20 21 23 24 24 15 4 6 8 3 2 7 6 2 2 4 2 5 3 0 4 1 2 2 2 0 6 3 6 4 6 2 4 4 2 9 14 14 13 14 14 14
17 18 20 21 22 23 26 16 2 3 3 3 1 4 4 1 5 4 1 1 3 4 4 1 3 3 3 3 3 2 2 3 6 1 9 8 16 4 10 15 16 15 14 14 15
18 19 20 22 23 24 12 1 2 3 2 4 0 3 3 8 3 1 0 4 3 5 4 3 7 11 10 4 4 6 2 3 6 0 5 13 18 6 13 14 15 16 16 16 16
17 18 20 23 23 22 4 4 6 3 8 5 9 10 7 3 4 1 2 4 3 5 3 3 10 5 4 5 6 4 2 3 4 8 3 4 13 4 12 16 17 17 18 18 16
18 18 20 24 27 3 3 8 4 4 3 5 4 3 2 9 4 3 5 4 3 6 5 7 1 7 6 7 8 4 6 4 4 6 6 4 6 2 2 10 13 15 15 17 18
17 17 19 28 1 5 1 1 8 4 3 1 1 1 4 3 3 2 2 3 3 8 8 5 3 6 8 8 8 12 3 4 4 4 4 3 5 6 2 7 12 16 18 17 19
17 16 18 10 7 4 3 8 2 4 2 5 3 4 4 3 3 2 1 2 7 7 6 5 6 9 7 5 7 5 2 4 3 3 4 4 5 3 3 9 8 17 20 20 17
17 15 13 0 3 6 7 9 4 3 3 3 3 2 4 0 2 4 3 4 3 5 1 3 2 3 7 6 9 5 4 2 2 1 6 2 4 4 4 6 7 4 17 19 17
18 18 7 4 2 5 9 2 2 2 2 4 3 2 2 5 3 3 7 6 4 5 5 2 7 3 3 5 3 5 7 6 7 6 6 3 5 9 8 10 11 13 7 17 17
20 16 1 6 4 7 3 2 2 1 2 2 2 1 4 6 3 3 7 9 3 3 3 3 5 9 8 11 6 9 10 7 9 8 4 3 5 6 5 6 8 9 9 8 14
18 1 1 2 5 3 2 3 1 2 3 7 4 2 2 2 2 3 7 8 9 13 7 5 4 2 7 5 11 7 7 3 3 2 3 2 5 13 9 13 8 11 8 9 14
4 3 4 5 6 3 1 1 3 3 3 2 3 2 3 2 3 3 5 3 4 13 8 5 4 1 2 5 4 6 10 6 2 5 7 5 4 9 8 14 8 10 12 10 10
2 2 6 3 3 0 1 2 3 5 5 2 1 2 2 2 1 2 2 2 3 4 6 7 4 3 2 7 10 5 5 2 1 2 7 9 7 7 13 14 10 9 7 8 7
3 2 4 2 1 1 2 2 1 3 0 3 2 2 2 2 1 3 2 2 0 7 8 6 2 7 11 2 2 2 4 9 5 6 1 5 10 4 12 13 7 10 8 2 6
3 1 2 3 2 2 1 2 3 2 2 1 2 4 1 2 1 2 2 2 3 6 6 10 5 4 4 5 2 6 5 4 1 1 7 9 9 3 10 14 4 9 9 4 8
1 2 2 2 1 1 2 2 4 2 3 3 3 1 1 2 2 0 1 1 1 1 1 6 4 5 6 2 1 6 7 8 9 4 3 8 13 11 11 14 11 9 8 5 6
2 3 3 3 3 2 2 2 3 3 1 2 2 5 4 2 1 2 2 3 1 3 2 5 3 3 6 8 7 8 3 8 12 4 6 4 8 12 9 9 12 10 6 7 8
3 2 1 1 1 3 1 2 1 3 2 2 4 8 2 2 2 3 3 1 1 1 1 1 2 2 2 4 6 7 7 8 12 6 10 9 11 10 11 10 10 8 10 10 9
2 1 2 1 2 4 4 2 2 3 2 3 6 5 2 2 9 11 9 8 5 3 1 3 3 3 3 3 2 6 13 11 6 6 7 8 11 6 11 10 10 6 8 7 7
Wind_Direction
352 349 346 347 344 341 338 335 333 331 329 327 327 328 332 335 315 199 253 269 190 137 172 136 233 152 174 225 206 170 43 261 264 214 113 141 131 77 99 138 113 32 150 136 144
349 346 344 343 340 337 333 330 330 328 327 326 326 327 330 337 299 238 289 297 224 149 173 191 317 339 251 61 161 250 224 263 202 197 164 151 148 140 145 151 88 82 103 130 145
346 345 343 340 338 335 332 327 326 325 324 323 324 326 327 325 282 104 324 301 208 186 227 200 171 283 315 339 35 162 274 310 226 166 141 148 138 136 141 196 196 155 146 149 155
344 341 338 337 335 332 329 324 323 322 321 320 323 323 322 303 204 145 335 336 139 189 175 184 198 161 354 339 357 285 312 292 71 129 124 157 137 151 188 8 188 154 156 156 168
341 337 334 332 330 327 323 322 320 323 321 317 318 322 320 332 252 179 347 338 166 161 185 168 97 119 12 325 328 274 324 8 85 113 108 135 152 119 192 76 128 143 158 168 173
335 333 330 329 327 325 321 316 315 317 313 309 306 311 241 257 53 36 336 319 196 190 174 166 153 189 132 296 332 14 36 47 63 94 111 126 111 259 102 128 136 154 169 176 180
332 330 328 326 324 320 316 315 315 310 304 296 272 251 221 248 23 320 300 259 253 194 167 181 155 196 161 306 346 308 303 93 63 49 99 121 172 209 146 149 152 170 176 185 190
330 328 326 324 321 318 314 315 312 305 295 206 185 207 253 232 300 293 223 225 230 245 257 162 157 109 277 317 34 22 15 13 58 188 94 235 272 220 161 155 164 178 188 194 200
328 327 326 323 320 318 317 315 310 311 113 140 159 242 268 312 271 343 220 170 151 120 184 104 106 78 158 88 77 20 39 2 9 212 137 223 285 123 178 180 174 187 194 204 207
327 326 325 323 321 320 321 311 144 133 147 196 241 265 256 9 304 324 184 218 120 114 121 68 67 176 124 218 251 96 12 329 329 316 221 237 255 186 178 193 192 189 202 207 213
328 327 325 325 323 324 334 168 261 168 181 244 32 289 299 323 255 95 85 129 90 60 172 43 205 213 220 193 134 138 145 321 310 282 235 244 267 241 194 200 200 195 202 212 218
326 326 324 327 322 319 276 62 80 340 306 249 258 266 270 306 292 280 205 133 130 176 138 163 224 204 189 179 161 171 250 284 284 311 261 340 285 298 201 209 205 203 207 212 219
326 325 329 331 319 335 343 117 1 219 266 297 220 224 214 180 206 236 175 125 114 156 174 208 142 166 181 185 193 201 256 280 287 310 266 313 284 281 182 216 212 215 220 215 215
325 325 337 333 278 340 307 44 329 214 313 347 167 126 150 212 184 203 186 124 112 178 162 215 166 186 179 197 216 246 191 260 284 315 307 344 296 301 292 242 215 214 215 217 212
322 323 334 335 313 271 43 321 327 216 123 359 88 126 130 215 115 83 170 98 154 155 190 184 195 197 207 210 199 249 157 289 300 279 245 189 258 288 327 308 244 213 216 213 210
316 320 333 277 261 260 314 315 207 254 87 61 107 115 171 317 92 115 143 75 97 135 199 234 253 225 234 191 196 135 155 91 106 177 236 103 274 246 297 277 296 209 217 211 205
311 313 289 285 266 335 310 229 250 236 332 30 24 12 205 177 168 143 155 162 170 169 207 234 226 228 198 190 158 187 191 216 219 213 248 110 229 271 265 266 266 286 241 216 204
313 310 216 218 279 327 277 169 226 31 340 348 352 238 198 161 180 110 155 196 177 120 144 218 206 192 177 219 202 196 224 229 226 225 239 145 231 257 269 282 284 269 272 219 210
315 328 244 261 234 243 225 187 297 208 322 333 312 142 133 118 183 181 193 203 206 189 211 179 252 203 213 167 199 156 207 286 180 107 261 250 248 276 270 272 252 254 232 218 214
328 324 13 355 164 193 162 216 243 229 312 280 27 2 118 62 150 205 178 163 218 201 219 187 264 199 94 170 75 241 140 174 226 196 237 199 257 257 279 283 295 255 245 230 216
307 113 12 110 244 196 186 219 269 257 244 285 352 345 20 69 149 184 142 162 221 142 199 162 238 151 213 202 186 160 195 93 188 264 254 256 248 233 249 267 290 278 265 265 226
324 99 30 260 125 11 164 207 268 289 262 268 262 260 276 325 195 199 176 259 162 156 170 186 201 235 250 125 2 301 243 195 231 195 241 294 263 245 254 274 277 281 292 245 210
36 348 72 288 130 123 233 278 270 262 266 274 268 241 153 286 227 235 234 105 114 170 168 174 203 225 217 167 132 235 202 214 141 196 204 251 269 217 265 273 252 262 273 257 175
309 130 100 65 11 47 18 20 330 241 259 264 289 301 308 245 225 313 276 141 5 126 73 162 147 239 265 243 226 193 196 197 218 192 195 237 269 266 262 273 285 250 243 259 187
349 70 359 161 158 228 265 316 322 1 237 334 143 360 272 286 301 224 252 304 135 103 117 218 232 219 272 252 238 251 209 189 230 192 228 309 226 262 268 282 288 276 212 208 192
16 358 32 100 274 198 174 186 341 337 280 63 17 352 98 86 6 289 350 231 320 359 104 278 191 217 270 345 241 235 202 200 223 228 252 266 275 274 281 281 269 238 207 209 191
38 106 287 98 179 200 168 168 171 347 210 265 340 324 254 350 307 275 256 287 300 294 349 298 204 216 267 345 264 235 216 203 196 219 242 238 274 294 282 282 298 247 224 209 162